User: anonymous   Login
Location: Unspecified
(0.0000°N, 0.0000°E)
Time: 15:33:14
(UTC+02:00)
Language:

CZ-4 DEB - Orbit

View from above orbital plane
View from above orbital plane
View from above satellite
View from above satellite

Ground track
Ground track

The orbit data is extracted from the following two-line orbital elements,

1 29508U 06046D   17109.90615862 +.04138104 +25603-5 +18397-2 0  9997
2 29508 097.5858 181.3142 0013083 263.1703 096.8098 16.22092905576896
Epoch (UTC): 19 April 2017 21:44:52
Eccentricity: 0.0013083
inclination: 97.5858°
perigee height: 205 km
apogee height: 222 km
right ascension of ascending node: 181.3142°
argument of perigee: 263.1703°
revolutions per day: 16.22092905
mean anomaly at epoch: 96.8098°
orbit number at epoch: 57689

The dashed part of the orbit path shows where the satellite is in the earth's shadow,  

DLR